Weather History for Erie, CO

Change the Weather History Date:

Sunday, November 18, 2012

  Actual Average (KBJC) Record (KBJC)
Temperature  
Mean Temperature 45 °F -  
Max Temperature 62 °F 49 °F 77 °F (2008)
Min Temperature 28 °F 29 °F 10 °F (2000)
Degree Days  
Heating Degree Days 20    
Moisture  
Dew Point 26 °F    
Average Humidity 52    
Maximum Humidity 94    
Minimum Humidity 22    
Precipitation  
Precipitation 0.00 in - - ()
Sea Level Pressure  
Sea Level Pressure 30.01 in    
Wind  
Wind Speed 6 mph (WSW)    
Max Wind Speed 25 mph    
Max Gust Speed 34 mph    
Visibility 10 miles    
Events      
Averages and records for this station are not official NWS values.
T = Trace of Precipitation, MM = Missing Value Source: NWS Daily Summary

Daily Weather History Graph

Daily Weather History Graph

Search for Another Location

Airport:

Trip Planner

Search our weather history database for the weather conditions in past years. The results will help you decide how hot, cold, wet, or windy it might be!

Date:

Astronomy

Nov. 18, 2012 Rise Set
Actual Time 6:49 AM MST 4:41 PM MST
Civil Twilight 6:20 AM MST 5:10 PM MST
Nautical Twilight 5:47 AM MST 5:43 PM MST
Astronomical Twilight 5:15 AM MST 6:15 PM MST
Moon 11:17 AM MST (11/18) 10:03 PM MST (11/18)
Length of Visible Light 10h 50m
Length of Day
9h 51m
Waxing Crescent, 31% of the Moon is Illuminated
Nov 18
Waxing Crescent
Nov 20
First Quarter
Nov 28
Full
Dec 6
Last Quarter
Dec 13
New

Hourly Weather History & Observations

Time (MST) Temp. Windchill Dew Point Humidity Pressure Visibility Wind Dir Wind Speed Gust Speed Precip Events Conditions
12:15 AM 32.0 °F - 28.8 °F 88% 30.04 in 10.0 mi Calm Calm - N/A   Clear
12:35 AM 31.3 °F - 28.9 °F 91% 30.03 in 10.0 mi Calm Calm - N/A   Clear
12:55 AM 31.1 °F - 28.6 °F 90% 30.03 in 10.0 mi Calm Calm - N/A   Clear
1:15 AM 32.4 °F 29.1 °F 28.8 °F 87% 30.03 in 10.0 mi SSE 3.5 mph - N/A   Clear
1:35 AM 33.3 °F - 28.8 °F 84% 30.03 in 10.0 mi Calm Calm - N/A   Clear
1:55 AM 31.1 °F 27.7 °F 28.0 °F 88% 30.02 in 10.0 mi SSW 3.5 mph - N/A   Clear
2:15 AM 32.0 °F 25.6 °F 28.6 °F 87% 30.02 in 10.0 mi SW 6.9 mph - N/A   Clear
2:35 AM 31.8 °F 26.2 °F 28.0 °F 86% 30.02 in 10.0 mi SSW 5.8 mph - N/A   Clear
2:55 AM 31.8 °F - 28.2 °F 87% 30.01 in 10.0 mi Calm Calm - N/A   Clear
3:15 AM 32.0 °F - 28.0 °F 85% 30.01 in 10.0 mi Calm Calm - N/A   Clear
3:35 AM 30.6 °F - 27.3 °F 88% 30.00 in 10.0 mi Calm Calm - N/A   Clear
3:55 AM 29.7 °F - 27.7 °F 92% 29.99 in 10.0 mi Calm Calm - N/A   Clear
4:15 AM 28.8 °F 25.0 °F 26.8 °F 92% 30.00 in 10.0 mi SSW 3.5 mph - N/A   Clear
4:35 AM 28.4 °F 23.3 °F 26.8 °F 94% 30.00 in 10.0 mi SW 4.6 mph - N/A   Clear
4:55 AM 28.6 °F 23.5 °F 26.8 °F 93% 30.00 in 10.0 mi South 4.6 mph - N/A   Clear
5:15 AM 30.2 °F - 27.5 °F 90% 30.00 in 10.0 mi Calm Calm - N/A   Clear
5:35 AM 29.5 °F 24.5 °F 27.1 °F 91% 30.00 in 10.0 mi SSW 4.6 mph - N/A   Clear
5:55 AM 31.1 °F 26.4 °F 27.5 °F 87% 30.00 in 10.0 mi South 4.6 mph - N/A   Clear
6:15 AM 29.5 °F 22.5 °F 26.8 °F 90% 29.99 in 10.0 mi SW 6.9 mph - N/A   Clear
6:35 AM 28.9 °F 21.1 °F 26.6 °F 91% 29.99 in 10.0 mi South 8.1 mph - N/A   Clear
6:55 AM 30.9 °F - 27.5 °F 87% 29.99 in 10.0 mi Calm Calm - N/A   Clear
7:15 AM 30.2 °F 26.7 °F 27.1 °F 88% 29.99 in 10.0 mi SSW 3.5 mph - N/A   Clear
7:35 AM 31.8 °F - 29.1 °F 90% 29.99 in 10.0 mi Calm Calm - N/A   Clear
7:55 AM 35.2 °F 31.2 °F 31.6 °F 87% 30.00 in 10.0 mi NE 4.6 mph - N/A   Clear
8:15 AM 37.6 °F 35.1 °F 32.5 °F 82% 30.00 in 10.0 mi South 3.5 mph - N/A   Clear
8:35 AM 40.5 °F - 32.9 °F 74% 30.00 in 10.0 mi Calm Calm - N/A   Clear
8:55 AM 47.3 °F - 34.9 °F 62% 30.00 in 10.0 mi Calm Calm - N/A   Clear
9:15 AM 54.9 °F - 30.2 °F 39% 30.00 in 10.0 mi West 4.6 mph - N/A   Clear
9:35 AM 58.3 °F - 27.5 °F 31% 30.00 in 10.0 mi WSW 11.5 mph 19.6 mph N/A   Clear
9:55 AM 59.5 °F - 27.5 °F 30% 30.00 in 10.0 mi WSW 12.7 mph 17.3 mph N/A   Clear
10:15 AM 59.9 °F - 27.5 °F 29% 30.00 in 10.0 mi WSW 12.7 mph 20.7 mph N/A   Clear
10:35 AM 60.8 °F - 26.4 °F 27% 30.00 in 10.0 mi WSW 17.3 mph 23.0 mph N/A   Clear
10:55 AM 61.2 °F - 25.7 °F 26% 30.00 in 10.0 mi WSW 18.4 mph 26.5 mph N/A   Clear
11:15 AM 61.7 °F - 25.9 °F 26% 29.99 in 10.0 mi West 17.3 mph 24.2 mph N/A   Clear
11:34 AM 61.3 °F - 25.5 °F 26% 29.99 in 10.0 mi West 17.3 mph 29.9 mph N/A   Clear
11:55 AM 61.9 °F - 24.6 °F 24% 29.98 in 10.0 mi West 25.3 mph 31.1 mph N/A   Clear
12:15 PM 61.9 °F - 24.3 °F 24% 29.96 in 10.0 mi WNW 25.3 mph 34.5 mph N/A   Clear
12:35 PM 60.3 °F - 22.8 °F 24% 29.97 in 10.0 mi West 19.6 mph 33.4 mph N/A   Clear
1:15 PM 62.2 °F - 23.4 °F 23% 29.97 in 10.0 mi West 19.6 mph 31.1 mph N/A   Clear
1:35 PM 62.2 °F - 24.3 °F 23% 29.97 in 10.0 mi West 21.9 mph 33.4 mph N/A   Clear
1:55 PM 61.9 °F - 24.4 °F 24% 29.97 in 10.0 mi WNW 19.6 mph 31.1 mph N/A   Clear
2:15 PM 61.3 °F - 23.2 °F 23% 29.97 in 10.0 mi WNW 20.7 mph 32.2 mph N/A   Clear
2:35 PM 61.7 °F - 23.0 °F 23% 29.97 in 10.0 mi West 18.4 mph 26.5 mph N/A   Clear
2:55 PM 60.8 °F - 21.2 °F 22% 29.98 in 10.0 mi West 18.4 mph 28.8 mph N/A   Clear
3:15 PM 60.3 °F - 21.0 °F 22% 29.98 in 10.0 mi West 19.6 mph 28.8 mph N/A   Clear
3:35 PM 60.1 °F - 20.5 °F 22% 29.99 in 10.0 mi West 19.6 mph 25.3 mph N/A   Clear
3:55 PM 59.0 °F - 21.7 °F 24% 29.99 in 10.0 mi West 19.6 mph 25.3 mph N/A   Clear
4:15 PM 57.6 °F - 22.1 °F 25% 30.00 in 10.0 mi West 17.3 mph 20.7 mph N/A   Clear
4:35 PM 55.4 °F - 22.5 °F 28% 30.00 in 10.0 mi West 15.0 mph 20.7 mph N/A   Clear
4:55 PM 55.0 °F - 22.3 °F 28% 30.01 in 10.0 mi West 15.0 mph 20.7 mph N/A   Clear
5:15 PM 54.7 °F - 22.8 °F 29% 30.02 in 10.0 mi West 12.7 mph - N/A   Clear
5:35 PM 52.7 °F - 23.2 °F 32% 30.03 in 10.0 mi WSW 10.4 mph - N/A   Clear
5:55 PM 52.5 °F - 23.4 °F 32% 30.03 in 10.0 mi WSW 9.2 mph 16.1 mph N/A   Clear
6:15 PM 52.5 °F - 23.2 °F 32% 30.04 in 10.0 mi WSW 6.9 mph - N/A   Clear
6:35 PM 50.4 °F - 23.2 °F 35% 30.04 in 10.0 mi West 9.2 mph - N/A   Clear
6:55 PM 48.0 °F - 23.9 °F 39% 30.05 in 10.0 mi West 6.9 mph - N/A   Clear
7:15 PM 51.6 °F - 21.7 °F 31% 30.04 in 10.0 mi WSW 9.2 mph - N/A   Clear
7:35 PM 53.1 °F - 21.9 °F 30% 30.04 in 10.0 mi West 9.2 mph - N/A   Clear
7:55 PM 53.1 °F - 21.0 °F 29% 30.04 in 10.0 mi West 5.8 mph - N/A   Clear
8:15 PM 53.8 °F - 21.2 °F 28% 30.04 in 10.0 mi West 12.7 mph 23.0 mph N/A   Clear
8:35 PM 53.2 °F - 22.3 °F 30% 30.04 in 10.0 mi West 16.1 mph 23.0 mph N/A   Clear
8:55 PM 54.7 °F - 21.7 °F 28% 30.05 in 10.0 mi WSW 16.1 mph 25.3 mph N/A   Clear
9:35 PM 52.7 °F - 22.6 °F 31% 30.06 in 10.0 mi WSW 8.1 mph - N/A   Clear
10:15 PM 50.4 °F - 22.8 °F 34% 30.07 in 10.0 mi WSW 5.8 mph - N/A   Clear
10:35 PM 50.5 °F - 22.5 °F 33% 30.07 in 10.0 mi WSW 8.1 mph - N/A   Clear
10:55 PM 50.9 °F - 22.5 °F 33% 30.08 in 10.0 mi WSW 8.1 mph - N/A   Clear
11:15 PM 45.9 °F 43.6 °F 24.6 °F 43% 30.08 in 10.0 mi West 4.6 mph - N/A   Clear
11:35 PM 42.6 °F - 24.3 °F 48% 30.08 in 10.0 mi Calm Calm - N/A   Clear
11:55 PM 44.2 °F 41.8 °F 24.4 °F 46% 30.08 in 10.0 mi WSW 4.6 mph - N/A   Clear